TimeCDT,TemperatureF,Dew PointF,Humidity,Sea Level PressureIn,VisibilityMPH,Wind Direction,Wind SpeedMPH,Gust SpeedMPH,PrecipitationIn,Events,Conditions,WindDirDegrees,DateUTC
12:53 AM,62.1,55.0,78,30.09,10.0,SSW,3.5,-,N/A,,Clear,210,2013-07-12 05:53:00
1:53 AM,61.0,54.0,78,30.09,10.0,Calm,Calm,-,N/A,,Clear,0,2013-07-12 06:53:00
2:53 AM,59.0,53.1,81,30.10,10.0,Calm,Calm,-,N/A,,Clear,0,2013-07-12 07:53:00
3:53 AM,54.0,52.0,93,30.11,10.0,Calm,Calm,-,N/A,,Clear,0,2013-07-12 08:53:00
4:53 AM,54.0,51.1,90,30.12,10.0,Calm,Calm,-,N/A,,Clear,0,2013-07-12 09:53:00
5:53 AM,55.9,53.1,90,30.13,9.0,Calm,Calm,-,N/A,,Clear,0,2013-07-12 10:53:00
6:53 AM,60.1,55.9,86,30.13,9.0,Calm,Calm,-,N/A,,Clear,0,2013-07-12 11:53:00
7:53 AM,64.0,57.9,80,30.15,10.0,SW,6.9,-,N/A,,Clear,220,2013-07-12 12:53:00
8:53 AM,70.0,59.0,68,30.15,10.0,SW,9.2,-,N/A,,Clear,220,2013-07-12 13:53:00
9:53 AM,72.0,57.9,61,30.14,10.0,SSW,11.5,19.6,N/A,,Clear,200,2013-07-12 14:53:00
10:53 AM,75.9,57.9,54,30.14,10.0,WSW,10.4,18.4,N/A,,Clear,240,2013-07-12 15:53:00
11:53 AM,75.9,55.9,50,30.12,10.0,South,12.7,19.6,N/A,,Clear,180,2013-07-12 16:53:00
12:53 PM,77.0,55.9,48,30.12,10.0,SSW,11.5,18.4,N/A,,Clear,210,2013-07-12 17:53:00
1:53 PM,78.1,55.0,45,30.10,10.0,SSW,12.7,19.6,N/A,,Clear,200,2013-07-12 18:53:00
2:53 PM,79.0,55.0,44,30.10,10.0,South,12.7,19.6,N/A,,Clear,180,2013-07-12 19:53:00
3:53 PM,79.0,54.0,42,30.10,10.0,SSW,12.7,21.9,N/A,,Clear,200,2013-07-12 20:53:00
4:53 PM,79.0,55.9,45,30.09,10.0,South,10.4,23.0,N/A,,Clear,180,2013-07-12 21:53:00
5:53 PM,78.1,55.9,46,30.08,10.0,South,10.4,18.4,N/A,,Clear,180,2013-07-12 22:53:00
6:53 PM,75.0,55.0,50,30.08,10.0,South,8.1,-,N/A,,Clear,180,2013-07-12 23:53:00
7:53 PM,73.9,55.9,53,30.07,10.0,South,8.1,-,N/A,,Clear,180,2013-07-13 00:53:00
8:53 PM,71.1,55.9,59,30.06,10.0,South,5.8,-,N/A,,Clear,170,2013-07-13 01:53:00
9:53 PM,68.0,55.0,63,30.06,10.0,SSE,4.6,-,N/A,,Clear,160,2013-07-13 02:53:00
10:53 PM,66.9,55.0,66,30.05,10.0,SSE,3.5,-,N/A,,Clear,160,2013-07-13 03:53:00
11:53 PM,66.0,54.0,65,30.06,10.0,SSE,3.5,-,N/A,,Clear,150,2013-07-13 04:53:00